Location: Oakley
(37.9974°N, 121.7125°W)
Time: 02:31:14
(UTC+00:00)

Hubble Space Telescope - Pass Details

Date: 26 April 2026
Orbit: 473 x 476 km, 28.5° (Epoch: 11 May)

Event Time Altitude Azimuth Distance (km) Brightness Sun altitude
Rises 04:25:24 0° 241° (WSW) 2,507 4.6 -17.3°
Reaches altitude 10° 04:28:03 10° 223° (SW) 1,631 3.3 -17.7°
Enters shadow 04:29:57 18° 194° (SSW) 1,233 2.4 -18.0°
